This is the latest recevied weather packets stored in our database for station/object SQ9RHX-13. If no packets are shown the sender has not sent any weather packets the latest 10 day(s).
| Time | Temp. | Humidity | Pressure | Rain* | Wind** | Luminosity | Snow |
|---|---|---|---|---|---|---|---|
| 1777805103 | 26.67° C | 24% | 1019.7 hPa | 0 mm | - | 665 W/m² | - |
| 1777804803 | 26.67° C | 25% | 1019.8 hPa | 0 mm | - | 667 W/m² | - |
| 1777804503 | 26.67° C | 23% | 1019.9 hPa | 0 mm | - | 679 W/m² | - |
| 1777804203 | 26.67° C | 23% | 1019.7 hPa | 0 mm | - | 680 W/m² | - |
| 1777803903 | 26.67° C | 24% | 1020 hPa | 0 mm | - | 670 W/m² | - |
| 1777803603 | 26.67° C | 24% | 1019.9 hPa | 0 mm | - | 672 W/m² | - |
| 1777803303 | 26.67° C | 23% | 1019.9 hPa | 0 mm | - | 633 W/m² | - |
| 1777803005 | 26.67° C | 23% | 1020.1 hPa | 0 mm | - | 633 W/m² | - |
| 1777802702 | 26.11° C | 24% | 1020.1 hPa | 0 mm | - | 626 W/m² | - |
| 1777802404 | 26.11° C | 25% | 1020.1 hPa | 0 mm | - | 659 W/m² | - |
| 1777802102 | 26.11° C | 24% | 1020.2 hPa | 0 mm | - | 652 W/m² | - |
| 1777801803 | 26.11° C | 24% | 1020.3 hPa | 0 mm | - | 628 W/m² | - |
| 1777801504 | 25.56° C | 24% | 1020.2 hPa | 0 mm | - | 644 W/m² | - |
| 1777801204 | 26.11° C | 23% | 1020.3 hPa | 0 mm | - | 640 W/m² | - |
| 1777800905 | 26.11° C | 23% | 1020.2 hPa | 0 mm | - | 632 W/m² | - |
| 1777800603 | 25.56° C | 25% | 1020.4 hPa | 0 mm | - | 634 W/m² | - |
| 1777800302 | 25.56° C | 25% | 1020.4 hPa | 0 mm | - | 631 W/m² | - |
| 1777800004 | 25.56° C | 25% | 1020.4 hPa | 0 mm | - | 624 W/m² | - |
| 1777799704 | 25.56° C | 26% | 1020.5 hPa | 0 mm | - | 613 W/m² | - |
| 1777799404 | 25.56° C | 25% | 1020.6 hPa | 0 mm | - | 611 W/m² | - |
| 1777799103 | 25.56° C | 26% | 1020.7 hPa | 0 mm | - | 606 W/m² | - |
| 1777798804 | 26.11° C | 26% | 1020.5 hPa | 0 mm | - | 599 W/m² | - |
| 1777798503 | 25.56° C | 27% | 1020.5 hPa | 0 mm | - | 587 W/m² | - |
| 1777798203 | 25.56° C | 27% | 1020.8 hPa | 0 mm | - | 579 W/m² | - |
| 1777797902 | 25.56° C | 28% | 1020.6 hPa | 0 mm | - | 573 W/m² | - |
* Rain latest hour (hover to see other rain measurements)
** Current wind speed in m/s (hover to see current wind gust speed)